TimeCDT,TemperatureF,Dew PointF,Humidity,Sea Level PressureIn,VisibilityMPH,Wind Direction,Wind SpeedMPH,Gust SpeedMPH,PrecipitationIn,Events,Conditions,WindDirDegrees,DateUTC
12:53 AM,62.1,59.0,90,29.95,9.0,SSE,10.4,-,N/A,,Overcast,150,2013-03-10 06:53:00
1:53 AM,62.1,59.0,90,29.94,8.0,SE,8.1,-,N/A,,Overcast,140,2013-03-10 07:53:00
3:53 AM,63.0,60.1,90,29.91,7.0,SSE,6.9,-,N/A,,Overcast,150,2013-03-10 08:53:00
4:53 AM,63.0,60.1,90,29.92,8.0,SE,5.8,-,N/A,,Overcast,140,2013-03-10 09:53:00
5:53 AM,63.0,60.1,90,29.91,8.0,SSE,8.1,-,N/A,,Overcast,150,2013-03-10 10:53:00
6:45 AM,62.6,60.8,94,29.91,8.0,SE,11.5,-,N/A,,Scattered Clouds,140,2013-03-10 11:45:00
7:06 AM,62.6,60.8,94,29.90,7.0,SE,11.5,-,N/A,,Mostly Cloudy,140,2013-03-10 12:06:00
7:17 AM,62.6,60.8,94,29.90,6.0,SSE,12.7,20.7,N/A,,Mostly Cloudy,150,2013-03-10 12:17:00
7:53 AM,63.0,60.1,90,29.90,6.0,SSE,11.5,16.1,N/A,,Mostly Cloudy,150,2013-03-10 12:53:00
8:51 AM,64.4,60.8,88,29.92,8.0,SSE,11.5,-,N/A,,Overcast,150,2013-03-10 13:51:00
8:53 AM,64.0,61.0,90,29.92,8.0,SSE,13.8,-,N/A,,Overcast,150,2013-03-10 13:53:00
9:37 AM,66.2,60.8,83,29.96,10.0,SSE,16.1,23.0,N/A,,Overcast,150,2013-03-10 14:37:00
9:53 AM,68.0,61.0,78,29.95,10.0,SSE,13.8,21.9,N/A,,Overcast,160,2013-03-10 14:53:00
10:53 AM,69.1,61.0,75,29.95,10.0,SSE,11.5,21.9,N/A,,Overcast,160,2013-03-10 15:53:00
11:01 AM,69.8,60.8,73,29.96,10.0,South,11.5,20.7,N/A,,Overcast,170,2013-03-10 16:01:00
11:19 AM,71.6,60.8,69,29.96,9.0,South,25.3,32.2,N/A,,Overcast,170,2013-03-10 16:19:00
11:53 AM,70.0,61.0,73,29.94,4.0,South,16.1,28.8,0.00,,Haze,170,2013-03-10 16:53:00
12:00 PM,71.6,62.6,73,29.95,4.0,South,20.7,26.5,N/A,,Haze,170,2013-03-10 17:00:00
12:34 PM,69.8,62.6,78,29.94,4.0,SSE,17.3,32.2,0.00,Rain,Light Rain,160,2013-03-10 17:34:00
12:53 PM,68.0,64.0,87,29.92,4.0,SSE,16.1,28.8,0.00,Rain,Light Rain,160,2013-03-10 17:53:00
1:46 PM,71.6,62.6,73,29.90,10.0,SSE,21.9,28.8,0.00,,Overcast,150,2013-03-10 18:46:00
1:53 PM,72.0,62.1,71,29.89,10.0,SSE,20.7,28.8,0.00,,Overcast,160,2013-03-10 18:53:00
2:30 PM,73.4,60.8,65,29.88,10.0,South,18.4,34.5,N/A,,Overcast,170,2013-03-10 19:30:00
2:53 PM,73.9,61.0,64,29.87,10.0,SSE,25.3,32.2,N/A,,Overcast,160,2013-03-10 19:53:00
3:53 PM,73.0,62.1,68,29.86,10.0,SSE,16.1,26.5,N/A,,Overcast,160,2013-03-10 20:53:00
4:53 PM,73.0,61.0,66,29.83,10.0,SSE,15.0,29.9,N/A,,Overcast,160,2013-03-10 21:53:00
5:53 PM,72.0,62.1,71,29.84,10.0,South,17.3,25.3,N/A,,Overcast,170,2013-03-10 22:53:00
6:53 PM,71.1,63.0,75,29.84,10.0,South,12.7,25.3,N/A,,Overcast,170,2013-03-10 23:53:00
7:30 PM,69.8,62.6,78,29.86,10.0,South,12.7,23.0,N/A,,Overcast,170,2013-03-11 00:30:00
7:53 PM,70.0,63.0,78,29.86,10.0,South,13.8,23.0,N/A,,Overcast,170,2013-03-11 00:53:00
8:53 PM,69.1,64.0,84,29.86,10.0,South,13.8,-,N/A,,Overcast,170,2013-03-11 01:53:00
9:04 PM,62.6,59.0,88,29.87,10.0,Calm,Calm,-,N/A,,Overcast,0,2013-03-11 02:04:00
9:34 PM,69.8,64.4,83,29.87,10.0,South,17.3,23.0,N/A,,Overcast,170,2013-03-11 02:34:00
9:53 PM,68.0,64.0,87,29.86,10.0,South,15.0,19.6,N/A,,Overcast,170,2013-03-11 02:53:00
10:43 PM,60.8,57.2,88,29.88,10.0,NNW,3.5,-,N/A,,Overcast,340,2013-03-11 03:43:00
10:53 PM,61.0,57.9,90,29.86,10.0,NW,12.7,-,N/A,,Overcast,310,2013-03-11 03:53:00
11:53 PM,57.9,55.9,93,29.89,8.0,NNW,10.4,-,0.03,Rain,Light Rain,330,2013-03-11 04:53:00
12:07 AM,57.2,55.4,94,29.91,6.0,WNW,12.7,-,0.05,Rain,Light Rain,300,2013-03-11 05:07:00
12:53 AM,54.0,53.1,97,29.93,6.0,NW,10.4,-,0.11,Rain,Rain,320,2013-03-11 05:53:00